Montello, Wisconsin, United States (53949)
Lat: 43.79N, Lon: 89.32W
Wx Zone: WIZ046
Local Info
Past Weather Observations for Saturday, February 21, 2015

NOTE: This archive is for the closest National Weather Service station to Montello. Information may differ from the station used for current weather conditions.

Click here for Long-term Archive

Time Weather Temperature Dewpoint Humidity Pressure Winds Precip Visibility
23:50
Mostly Cloudy
14°F / -10°C 5°F / -15°C 67% 30.21 in
(1023 mb)
NW 3.5 mph
(NW 6 kph)
- 10SM
23:30
Mostly Cloudy
14°F / -10°C 5°F / -15°C 67% 30.21 in
(1023 mb)
NW 5.8 mph
(NW 9 kph)
- 10SM
23:10
Clear
14°F / -10°C 5°F / -15°C 67% 30.21 in
(1023 mb)
NW 5.8 mph
(NW 9 kph)
- 10SM
22:50
Clear
14°F / -10°C 5°F / -15°C 67% 30.18 in
(1022 mb)
NW 6.9 mph
(NW 11 kph)
- 10SM
22:30
Clear
16°F / -9°C 5°F / -15°C 62% 30.18 in
(1022 mb)
NNW 6.9 mph
(NNW 11 kph)
- 10SM
22:10
Clear
16°F / -9°C 7°F / -14°C 67% 30.18 in
(1022 mb)
NW 6.9 mph
(NW 11 kph)
- 10SM
21:50
Clear
16°F / -9°C 7°F / -14°C 67% 30.18 in
(1022 mb)
NW 6.9 mph
(NW 11 kph)
- 10SM
21:30
Clear
18°F / -8°C 7°F / -14°C 62% 30.15 in
(1021 mb)
NNW 8.1 mph
(NNW 13 kph)
- 10SM
21:10
Clear
18°F / -8°C 7°F / -14°C 62% 30.15 in
(1021 mb)
NNW 4.6 mph
(NNW 7 kph)
- 10SM
20:50
Clear
18°F / -8°C 7°F / -14°C 62% 30.15 in
(1021 mb)
NW 6.9 mph
(NW 11 kph)
- 10SM
20:30
Clear
19°F / -7°C 9°F / -13°C 63% 30.12 in
(1020 mb)
NW 6.9 mph
(NW 11 kph)
- 10SM
20:10
Clear
19°F / -7°C 9°F / -13°C 63% 30.12 in
(1020 mb)
NNW 11.5 mph
(NNW 19 kph)
- 10SM
19:50
Clear
19°F / -7°C 9°F / -13°C 63% 30.09 in
(1019 mb)
NW 6.9 mph
(NW 11 kph)
- 10SM
19:30
Clear
21°F / -6°C 10°F / -12°C 63% 30.09 in
(1019 mb)
NW 11.5 mph
(NW 19 kph)
- 10SM
19:10
Clear
21°F / -6°C 10°F / -12°C 63% 30.09 in
(1019 mb)
NW 9.2 mph
(NW 15 kph)
- 10SM
18:50
Clear
23°F / -5°C 12°F / -11°C 63% 30.09 in
(1019 mb)
NW 9.2 mph
(NW 15 kph)
- 10SM
18:30
Partly Cloudy
23°F / -5°C 12°F / -11°C 63% 30.06 in
(1018 mb)
NW 8.1 mph
(NW 13 kph)
- 10SM
18:10
Mostly Cloudy
25°F / -4°C 12°F / -11°C 59% 30.06 in
(1018 mb)
NW 8.1 mph
(NW 13 kph)
- 10SM
17:50
Overcast
25°F / -4°C 14°F / -10°C 63% 30.04 in
(1017 mb)
NW 8.1 mph
(NW 13 kph)
- 10SM
17:30
Overcast
27°F / -3°C 14°F / -10°C 59% 30.04 in
(1017 mb)
NNW 8.1 mph
(NNW 13 kph)
- 10SM
17:10
Overcast
27°F / -3°C 16°F / -9°C 64% 30.01 in
(1016 mb)
NW 8.1 mph
(NW 13 kph)
- 10SM
16:50
Overcast
27°F / -3°C 16°F / -9°C 64% 30.01 in
(1016 mb)
NW 10.4 mph
(NW 17 kph)
- 10SM
16:30
Overcast
28°F / -2°C 16°F / -9°C 59% 30.01 in
(1016 mb)
N 8.1 mph
(N 13 kph)
- 10SM
16:10
Overcast
28°F / -2°C 16°F / -9°C 59% 29.98 in
(1015 mb)
NNW 8.1 mph
(NNW 13 kph)
- 10SM
15:50
Overcast
28°F / -2°C 16°F / -9°C 59% 29.98 in
(1015 mb)
NW 5.8 mph
(NW 9 kph)
- 10SM
15:30
Overcast
28°F / -2°C 16°F / -9°C 59% 29.98 in
(1015 mb)
NW 8.1 mph
(NW 13 kph)
- 10SM
15:10
Overcast
28°F / -2°C 16°F / -9°C 59% 29.95 in
(1014 mb)
NW 6.9 mph
(NW 11 kph)
- 10SM
14:50
Mostly Cloudy
28°F / -2°C 16°F / -9°C 59% 29.95 in
(1014 mb)
NW 6.9 mph
(NW 11 kph)
- 10SM
14:30
Mostly Cloudy
28°F / -2°C 16°F / -9°C 59% 29.95 in
(1014 mb)
W 10.4 mph
(W 17 kph)
- 10SM
14:10
Overcast
30°F / -1°C 16°F / -9°C 55% 29.95 in
(1014 mb)
NW 8.1 mph
(NW 13 kph)
- 10SM
13:50
Mostly Cloudy
30°F / -1°C 14°F / -10°C 51% 29.95 in
(1014 mb)
N 3.5 mph
(N 6 kph)
- 10SM
13:30
Partly Cloudy
28°F / -2°C 14°F / -10°C 55% 29.92 in
(1013 mb)
Calm - 10SM
13:10
Partly Cloudy
28°F / -2°C 14°F / -10°C 55% 29.92 in
(1013 mb)
NE 5.8 mph
(NE 9 kph)
- 10SM
12:50
Partly Cloudy
28°F / -2°C 14°F / -10°C 55% 29.92 in
(1013 mb)
NNE 4.6 mph
(NNE 7 kph)
- 10SM
12:30
Clear
28°F / -2°C 14°F / -10°C 55% 29.92 in
(1013 mb)
NE 4.6 mph
(NE 7 kph)
- 10SM
12:10
Partly Cloudy
28°F / -2°C 14°F / -10°C 55% 29.92 in
(1013 mb)
N 3.5 mph
(N 6 kph)
- 10SM
11:50
Partly Cloudy
28°F / -2°C 14°F / -10°C 55% 29.95 in
(1014 mb)
N 4.6 mph
(N 7 kph)
- 10SM
11:30
Clear
28°F / -2°C 14°F / -10°C 55% 29.92 in
(1013 mb)
NNE 6.9 mph
(NNE 11 kph)
- 10SM
11:10
Clear
27°F / -3°C 14°F / -10°C 59% 29.92 in
(1013 mb)
N 4.6 mph
(N 7 kph)
- 10SM
10:50
Clear
27°F / -3°C 14°F / -10°C 59% 29.92 in
(1013 mb)
N 4.6 mph
(N 7 kph)
- 10SM
10:30
Clear
25°F / -4°C 16°F / -9°C 69% 29.92 in
(1013 mb)
NNW 6.9 mph
(NNW 11 kph)
- 10SM
10:10
Clear
25°F / -4°C 16°F / -9°C 69% 29.92 in
(1013 mb)
NNW 6.9 mph
(NNW 11 kph)
- 10SM
09:50
Clear
25°F / -4°C 16°F / -9°C 69% 29.92 in
(1013 mb)
NNW 4.6 mph
(NNW 7 kph)
- 10SM
09:30
Partly Cloudy
23°F / -5°C 16°F / -9°C 74% 29.92 in
(1013 mb)
N 5.8 mph
(N 9 kph)
- 10SM
09:10
Mostly Cloudy
23°F / -5°C 14°F / -10°C 68% 29.92 in
(1013 mb)
NNE 4.6 mph
(NNE 7 kph)
- 10SM
08:50
Overcast
21°F / -6°C 14°F / -10°C 74% 29.92 in
(1013 mb)
N 3.5 mph
(N 6 kph)
- 10SM
08:30
Overcast
21°F / -6°C 14°F / -10°C 74% 29.92 in
(1013 mb)
Calm - 10SM
08:10
Overcast
19°F / -7°C 14°F / -10°C 79% 29.92 in
(1013 mb)
Calm - 10SM
07:50
Overcast
18°F / -8°C 14°F / -10°C 86% 29.89 in
(1012 mb)
Calm - 7SM
07:30
Overcast
18°F / -8°C 14°F / -10°C 86% 29.89 in
(1012 mb)
Calm - 7SM
07:10
Overcast
18°F / -8°C 14°F / -10°C 86% 29.89 in
(1012 mb)
Calm - 7SM
06:50
Overcast
16°F / -9°C 12°F / -11°C 86% 29.89 in
(1012 mb)
Calm - 7SM
06:30
Overcast
14°F / -10°C 12°F / -11°C 92% 29.89 in
(1012 mb)
Calm - 7SM
06:10
Overcast
12°F / -11°C 10°F / -12°C 92% 29.89 in
(1012 mb)
Calm - 7SM
05:50
Overcast
12°F / -11°C 10°F / -12°C 92% 29.89 in
(1012 mb)
Calm - 7SM
05:30
Partly Cloudy
16°F / -9°C 12°F / -11°C 86% 29.86 in
(1011 mb)
Calm - 10SM
05:10
Clear
16°F / -9°C 12°F / -11°C 86% 29.86 in
(1011 mb)
Calm - 10SM
04:50
Clear
16°F / -9°C 12°F / -11°C 86% 29.86 in
(1011 mb)
Calm - 10SM
04:30
Clear
18°F / -8°C 12°F / -11°C 79% 29.86 in
(1011 mb)
Calm - 10SM
04:10
Partly Cloudy
19°F / -7°C 12°F / -11°C 73% 29.83 in
(1010 mb)
Calm - 10SM
03:50
Mostly Cloudy
19°F / -7°C 14°F / -10°C 79% 29.86 in
(1011 mb)
Calm - 10SM
03:30
Mostly Cloudy
21°F / -6°C 14°F / -10°C 74% 29.83 in
(1010 mb)
Calm - 10SM
03:10
Overcast
21°F / -6°C 14°F / -10°C 74% 29.86 in
(1011 mb)
Calm - 10SM
02:50
Overcast
21°F / -6°C 14°F / -10°C 74% 29.86 in
(1011 mb)
SW 3.5 mph
(SW 6 kph)
- 10SM
02:30
Overcast
21°F / -6°C 14°F / -10°C 74% 29.86 in
(1011 mb)
S 3.5 mph
(S 6 kph)
- 10SM
02:10
Overcast
21°F / -6°C 14°F / -10°C 74% 29.86 in
(1011 mb)
Calm - 10SM
01:50
Overcast
21°F / -6°C 14°F / -10°C 74% 29.86 in
(1011 mb)
Calm - 10SM
01:30
Overcast
19°F / -7°C 14°F / -10°C 79% 29.86 in
(1011 mb)
Calm - 10SM
01:10
Overcast
21°F / -6°C 14°F / -10°C 74% 29.83 in
(1010 mb)
Calm - 10SM
00:50
Overcast
21°F / -6°C 12°F / -11°C 68% 29.83 in
(1010 mb)
Calm - 10SM
00:30
Overcast
19°F / -7°C 12°F / -11°C 73% 29.86 in
(1011 mb)
Calm - 10SM
00:10
Overcast
19°F / -7°C 12°F / -11°C 73% 29.83 in
(1010 mb)
Calm - 10SM
Time Weather Temperature Dewpoint Humidity Pressure Winds Precip Visibility


Weather for websites

WeatherForYou.com, LLC is not responsible for any damages or problems caused by this service. Current weather conditions are obtained from the closest station including government and personal stations which may have varying degrees of accuracy. Weather forecasts are derived from the NOAA NDFD. Like all things, this site belongs to Jesus Christ... He just trusts me to maintain it. If you have any questions or comments email webmaster@weatherforyou.com

Copyright © 2015, WeatherForYou.com LLC. All rights reserved.